Location: Unspecified
(0.0000°N, 0.0000°E)
Time: 00:28:45
(UTC+02:00)

Delta 168 - Visible Passes

Search period start: 05 July 2015 00:00
Search period end: 15 July 2015 00:00
Orbit: 395 x 2089 km, 25.3° (Epoch: 04 July)

Date Brightness Start Highest point End Pass type
(mag) Time Alt. Az. Time Alt. Az. Time Alt. Az.
05 Jul 5.8 04:55:12 38° N 04:55:12 38° N 05:01:20 10° NE visible
05 Jul 6.5 06:48:18 10° NW 06:52:21 13° NNW 06:55:31 10° N visible
05 Jul 6.6 20:39:25 10° SSW 20:43:36 14° S 20:48:33 10° SE visible
05 Jul 6.6 22:36:31 10° SSW 22:40:34 20° S 22:40:34 20° S visible
06 Jul 6.0 04:48:04 35° N 04:48:04 35° N 04:54:15 10° NE visible
06 Jul 6.6 06:41:28 10° NW 06:45:25 13° NNW 06:48:30 10° N visible
06 Jul 6.6 20:32:58 10° SSW 20:36:44 13° S 20:41:13 10° SE visible
06 Jul 6.5 22:29:21 10° SSW 22:33:52 21° S 22:33:52 21° S visible
07 Jul 6.1 04:40:52 33° N 04:40:52 33° N 04:47:08 10° NE visible
07 Jul 6.7 06:34:37 10° NW 06:38:29 13° NNW 06:41:33 10° N visible
07 Jul 6.5 20:26:26 10° S 20:29:50 13° SSE 20:33:58 10° SE visible
07 Jul 6.4 22:22:09 10° SSW 22:27:15 24° S 22:27:15 24° S visible
08 Jul 6.3 04:33:36 30° N 04:33:36 30° N 04:39:58 10° NNE visible
08 Jul 6.8 06:27:40 10° NW 06:31:33 13° NNW 06:34:40 10° N visible
08 Jul 6.2 22:14:57 10° SSW 22:20:42 26° S 22:20:42 26° S visible
09 Jul 6.4 04:26:18 29° N 04:26:18 29° N 04:32:47 10° NNE visible
09 Jul 6.9 06:20:39 10° NW 06:24:38 13° NNW 06:27:51 10° N visible
09 Jul 6.0 22:07:46 10° SSW 22:14:13 30° S 22:14:13 30° S visible
10 Jul 6.6 04:18:56 27° N 04:18:56 27° N 04:25:34 10° NNE visible
10 Jul 6.9 06:13:32 10° NW 06:17:42 13° NNW 06:21:08 10° N visible
10 Jul 5.8 22:00:35 10° SW 22:07:51 33° SSE 22:07:51 33° SSE visible
10 Jul 7.1 23:57:26 10° WSW 23:58:09 13° SW 23:58:09 13° SW visible
11 Jul 6.7 04:11:32 26° N 04:11:32 26° N 04:18:20 10° NNE visible
11 Jul 7.0 06:06:17 10° NW 06:10:47 13° NNW 06:14:30 10° NNE visible
11 Jul 5.6 21:53:25 10° SW 22:01:28 36° SSE 22:01:36 36° SSE visible
11 Jul 6.9 23:50:14 10° WSW 23:51:55 17° WSW 23:51:55 17° WSW visible
12 Jul 6.8 04:04:07 24° N 04:04:07 24° N 04:11:06 10° NNE visible
12 Jul 7.0 05:58:58 10° NW 06:03:51 14° N 06:07:57 10° NNE visible
12 Jul 5.4 21:46:17 10° SW 21:54:09 39° SSE 21:55:29 38° SE visible
12 Jul 6.6 23:43:05 10° WSW 23:45:47 23° WSW 23:45:47 23° WSW visible
13 Jul 6.8 03:56:40 23° N 03:56:40 23° N 04:03:50 10° NNE visible
13 Jul 7.1 05:51:32 10° NW 05:56:54 14° N 06:01:27 10° NNE visible
13 Jul 5.3 21:39:10 10° SW 21:46:50 43° SSE 21:49:30 37° ESE visible
13 Jul 6.3 23:35:59 10° WSW 23:39:49 30° WSW 23:39:49 30° WSW visible
14 Jul 6.9 03:49:13 22° N 03:49:13 22° N 03:56:36 10° NNE visible
14 Jul 7.1 05:44:02 10° NW 05:49:56 15° N 05:55:00 10° NNE visible
14 Jul 5.1 21:32:04 10° SW 21:39:29 47° SSE 21:43:39 33° ESE visible
14 Jul 5.9 23:28:56 10° WSW 23:33:59 39° WSW 23:33:59 39° WSW visible
